Regional Weather Roundup
Issued by NWS

Home | Current Version | Previous Version | Text Only | Print | Product List | Glossary Off
Versions: 1 2 3 4 5 6 7 8 9 10 11 12 13 14 15 16 17 18 19 20 21 22 23 24 25 26 27 28 29 30 31 32 33 34 35 36 37 38 39 40 41 42 43 44 45 46 47 48 49 50

000
ASUS43 KDTX 300510
RWRMI
MICHIGAN HOURLY REGIONAL WEATHER ROUNDUP
NATIONAL WEATHER SERVICE DETROIT/PONTIAC MI
100 AM EDT SAT MAY 30 2015

NOTE: "FAIR" INDICATES FEW OR NO CLOUDS BELOW 12,000 FEET WITH NO
SIGNIFICANT WEATHER AND/OR OBSTRUCTION TO VISIBILITY.

MIZ047>049-052>055-059>063-066>070-074>076-081>083-300600-
SOUTHEAST LOWER MICHIGAN

CITY           SKY/WX    TMP DP  RH WIND       PRES   REMARKS
ADRIAN         PTCLDY    74  63  68 SW10      30.00R
ALMA           MOCLDY    68  67  95 S7        29.93R
ANN ARBOR      PTCLDY    73  64  73 SW8       29.98S
BAD AXE        PTCLDY    69  65  88 S12       29.92S
CARO           MOCLDY    69  67  92 S7        29.91F
DETROIT CITY   PTCLDY    73  64  73 S9        29.97F
DETROIT        MOCLDY    74  65  73 S8        29.99S
FLINT          PTCLDY    76  65  68 S13       29.94F
GROSSE ILE     PTCLDY    66  63  88 S8        29.98S
HILLSDALE      PTCLDY    74  64  70 S6        30.00S
HOWELL         PTCLDY    73  65  76 S7        29.97R

CITY           SKY/WX    TMP DP  RH WIND       PRES   REMARKS
JACKSON        PTCLDY    75  63  66 SW10      29.97S
LAMBERTVILLE   CLEAR     75  63  64 SW7       30.00S
LANSING        RAIN      69  66  90 W14       29.97R FOG
LAPEER         FAIR      72  64  74 S9        29.95S
MASON          MOCLDY    73  63  68 W7        29.97R
MONROE         PTCLDY    73  64  73 S9        29.97F
MT. CLEMENS    PTCLDY    65  64  94 S9        29.95F
PONTIAC        MOCLDY    73  65  75 S10       29.96F
PORT HOPE        N/A     70  65  84 S8        29.88F
PORT HURON     PTCLDY    66  63  88 S7        29.97F
TRI CITIES     LGT RAIN  70  66  87 S6        29.92S FOG
MIDLAND        MOCLDY    69  67  93 S8        29.89F
TROY           MOCLDY    75  66  73 S7        29.99S
SAGINAW HB     RAIN      68  68 100 SW9G21    29.93R
$$
MIZ043>046-050>051-056>058-064>065-071>073-077>080-300600-
SOUTHWEST LOWER MICHIGAN

CITY           SKY/WX    TMP DP  RH WIND       PRES   REMARKS
BATTLE CREEK   LGT RAIN  70  67  90 SW8       29.97F
BENTON HARBOR  CLOUDY    69  66  90 S6        29.95R
BIG RAPIDS     MOCLDY    68  65  89 SW5       29.90R FOG
COLDWATER      PTCLDY    74  62  66 S7        29.98S
FREMONT        MOCLDY    67  64  90 SW6       29.91R
HOLLAND        MOCLDY    71  64  78 SW14      29.94S
GRAND RAPIDS   PTCLDY    69  66  90 SW8       29.94R
IONIA          FAIR      70  67  92 SW12      29.93S
KALAMAZOO      CLOUDY    70  66  87 SW6       29.96F
LUDINGTON      CLOUDY    63  60  91 W12       29.90R FOG
MARSHALL       CLOUDY    75  65  70 W8        29.97R
MOUNT PLEASANT PTCLDY    69  66  92 S8        29.89F
MUSKEGON       MOCLDY    63  58  83 S9        29.92R
SOUTH HAVEN    CLOUDY    69  65  88 S6        29.94S
$$
MIZ016>042-300600-
NORTHERN LOWER MICHIGAN

CITY           SKY/WX    TMP DP  RH WIND       PRES   REMARKS
ALPENA         CLOUDY    65  64  97 CALM      29.87S FOG
BEAVER ISLAND  CLOUDY    54  53  97 W3        29.87F FOG
BELLAIRE       LGT RAIN  67  65  94 CALM      29.86S
CADILLAC       CLOUDY    67  66  94 SW9G17    29.89S
CHARLEVOIX     RAIN      57  57 100 W8        29.90S VSB 3/4
FRANKFORT      HAZE      59  54  83 CALM      29.88F VSB 1/4
GAYLORD        CLOUDY    66  66 100 SW8       29.87S FOG
GRAYLING       CLOUDY    66  65  96 S7        29.88F
HARBOR SPRINGS DRZL/FOG  52  52  99 SW3       29.87S VSB 1/4
HOUGHTON LAKE  LGT RAIN  68  65  90 S12       29.89F
MANISTEE       CLOUDY    61  55  82 W5        29.89R
OSCODA         HVY RAIN  67  66  97 SW8       29.90R
PELLSTON       LGT RAIN  64  62  93 W6        29.86S FOG
ROGERS CITY    LGT RAIN  66  65  96 S5        29.85F
TRAVERSE CITY  CLOUDY    69  66  90 SW3       29.84F
$$
MIZ007>008-015-300600-
EASTERN UPPER MICHIGAN

CITY           SKY/WX    TMP DP  RH WIND       PRES   REMARKS
KINROSS        CLOUDY    63  61  94 CALM      29.86R
MACKINAC ISLAN LGT RAIN  56  56 100 W6        29.85S VSB 3/4
NEWBERRY       CLOUDY    55  54  96 NW7       29.88R
S. S. MARIE    CLOUDY    59  58  96 NW8       29.85S
MUNISING         N/A     47  44  90 NW15      29.94S
$$
MIZ004>006-011>014-085-300600-
CENTRAL UPPER MICHIGAN

CITY           SKY/WX    TMP DP  RH WIND       PRES   REMARKS
MANISTIQUE     LGT RAIN  54  53  95 N12G17    29.88R
ESCANABA       CLOUDY    55  52  88 N9        29.91R
MENOMINEE      CLOUDY    63  59  88 N5        29.89R
SAWYER-GWINN   LGT RAIN  51  49  93 N14       29.95S
$$
MIZ001>003-009>011-084-300600-
WESTERN UPPER MICHIGAN

CITY           SKY/WX    TMP DP  RH WIND       PRES   REMARKS
IRON MOUNTAIN  LGT RAIN  55  51  86 N14       29.95R
HOUGHTON       CLOUDY    51  46  83 N5        29.99R
COPPER HARBOR    N/A     47  43  86 N7        29.99R
IRONWOOD       CLOUDY    48  46  93 N7        30.03R
$$

ABBREVIATIONS USED IN REMARKS
   TC - TEMPERATURE IN CELSIUS
  WCI - WIND CHILL INDEX
   HX - HEAT INDEX
  VSB - VISIBILITY




USA.gov is the U.S. government's official web portal to all federal, state and local government web resources and services.